When you browse on this site, cookies collect data to enhance your experience and personalize the content and advertising you see.
Visit our Privacy Policy to learn more. By continuing to use the site, you agree to this use of cookies and data.
  • In Hungary
  • List of Countries
  • For 7 days
  • Water Temperature
  • Satellite Maps
  • Weather Map
  • News
  • Weather Widgets
  • user-avatar
    Login

    Hourly Weather Jerusalem

    Today, 17 July, Wednesday

    Time Temperature Precipitation Wind Pressure Humidity
    00:00 +22°C° 0 mm 1 mps 689 mmHg 44%
    01:00 +22°C° 0 mm 1 mps 689 mmHg 40%
    02:00 +23°C° 0 mm 2 mps 688 mmHg 36%
    03:00 +23°C° 0 mm 2 mps 688 mmHg 35%
    04:00 +24°C° 0 mm 2 mps 688 mmHg 34%
    05:00 +24°C° 0 mm 2 mps 688 mmHg 32%
    06:00 +27°C° 0 mm 3 mps 689 mmHg 29%
    07:00 +30°C° 0 mm 3 mps 689 mmHg 26%
    08:00 +34°C° 0 mm 4 mps 689 mmHg 22%
    09:00 +36°C° 0 mm 6 mps 690 mmHg 20%
    10:00 +38°C° 0 mm 8 mps 690 mmHg 19%
    11:00 +40°C° 0 mm 9 mps 690 mmHg 17%
    12:00 +39°C° 0 mm 10 mps 690 mmHg 20%
    13:00 +38°C° 0 mm 10 mps 690 mmHg 24%
    14:00 +38°C° 0 mm 10 mps 689 mmHg 27%
    15:00 +37°C° 0 mm 9 mps 689 mmHg 27%
    16:00 +35°C° 0 mm 8 mps 690 mmHg 28%
    17:00 +34°C° 0 mm 7 mps 690 mmHg 28%
    18:00 +30°C° 0 mm 6 mps 690 mmHg 40%
    19:00 +28°C° 0 mm 5 mps 689 mmHg 51%
    20:00 +25°C° 0 mm 5 mps 689 mmHg 62%
    21:00 +23°C° 0 mm 4 mps 689 mmHg 68%
    22:00 +22°C° 0 mm 3 mps 689 mmHg 74%
    23:00 +21°C° 0 mm 2 mps 689 mmHg 80%

    Tomorrow, 18 July, Thursday

    Time Temperature Precipitation Wind Pressure Humidity
    00:00 +21°C° 0 mm 2 mps 689 mmHg 81%
    01:00 +21°C° 0 mm 2 mps 689 mmHg 81%
    02:00 +21°C° 0 mm 2 mps 689 mmHg 81%
    03:00 +21°C° 0 mm 2 mps 689 mmHg 79%
    04:00 +20°C° 0 mm 2 mps 689 mmHg 77%
    05:00 +21°C° 0 mm 1 mps 689 mmHg 75%
    06:00 +23°C° 0 mm 2 mps 690 mmHg 63%
    07:00 +26°C° 0 mm 2 mps 690 mmHg 51%
    08:00 +28°C° 0 mm 3 mps 691 mmHg 39%
    09:00 +29°C° 0 mm 4 mps 691 mmHg 37%
    10:00 +30°C° 0 mm 5 mps 691 mmHg 34%
    11:00 +33°C° 0 mm 6 mps 692 mmHg 32%
    12:00 +33°C° 0 mm 7 mps 692 mmHg 34%
    13:00 +33°C° 0 mm 7 mps 691 mmHg 35%
    14:00 +32°C° 0 mm 8 mps 691 mmHg 37%
    15:00 +31°C° 0 mm 8 mps 691 mmHg 40%
    16:00 +29°C° 0 mm 8 mps 691 mmHg 42%
    17:00 +28°C° 0 mm 8 mps 691 mmHg 45%
    18:00 +26°C° 0 mm 6 mps 691 mmHg 54%
    19:00 +23°C° 0 mm 4 mps 691 mmHg 62%
    20:00 +21°C° 0 mm 3 mps 691 mmHg 71%
    21:00 +20°C° 0 mm 2 mps 691 mmHg 74%
    22:00 +19°C° 0 mm 2 mps 691 mmHg 77%
    23:00 +19°C° 0 mm 2 mps 691 mmHg 80%

    Day after tomorrow, 19 July, Friday

    Time Temperature Precipitation Wind Pressure Humidity
    00:00 +18°C° 0 mm 2 mps 691 mmHg 83%
    01:00 +18°C° 0 mm 2 mps 691 mmHg 85%
    02:00 +18°C° 0 mm 2 mps 691 mmHg 88%
    03:00 +18°C° 0 mm 2 mps 691 mmHg 88%
    04:00 +19°C° 0 mm 1 mps 691 mmHg 88%
    05:00 +19°C° 0 mm 1 mps 691 mmHg 88%
    06:00 +20°C° 0 mm 1 mps 691 mmHg 80%
    07:00 +22°C° 0 mm 1 mps 692 mmHg 71%
    08:00 +21°C° 0 mm 0 mps 692 mmHg 63%
    09:00 +25°C° 0 mm 1 mps 693 mmHg 55%
    10:00 +27°C° 0 mm 2 mps 693 mmHg 48%
    11:00 +29°C° 0 mm 2 mps 693 mmHg 40%
    12:00 +29°C° 0 mm 3 mps 693 mmHg 40%
    13:00 +30°C° 0 mm 4 mps 692 mmHg 41%
    14:00 +30°C° 0 mm 5 mps 692 mmHg 41%
    15:00 +29°C° 0 mm 6 mps 692 mmHg 44%
    16:00 +28°C° 0 mm 6 mps 692 mmHg 47%
    17:00 +27°C° 0 mm 7 mps 691 mmHg 50%
    18:00 +24°C° 0 mm 6 mps 691 mmHg 59%
    19:00 +22°C° 0 mm 4 mps 691 mmHg 69%
    20:00 +20°C° 0 mm 3 mps 691 mmHg 79%
    21:00 +19°C° 0 mm 2 mps 691 mmHg 79%
    22:00 +18°C° 0 mm 2 mps 691 mmHg 80%
    23:00 +19°C° 0 mm 1 mps 691 mmHg 80%

    20 July, Saturday

    Time Temperature Precipitation Wind Pressure Humidity
    00:00 +18°C° 0 mm 1 mps 691 mmHg 80%
    01:00 +18°C° 0 mm 1 mps 690 mmHg 80%
    02:00 +18°C° 0 mm 1 mps 690 mmHg 79%
    03:00 +16°C° 0 mm 1 mps 690 mmHg 81%
    04:00 +16°C° 0 mm 1 mps 690 mmHg 83%
    05:00 +16°C° 0 mm 1 mps 690 mmHg 84%
    06:00 +19°C° 0 mm 1 mps 691 mmHg 75%
    07:00 +21°C° 0 mm 1 mps 691 mmHg 66%
    08:00 +24°C° 0 mm 1 mps 692 mmHg 57%
    09:00 +25°C° 0 mm 1 mps 692 mmHg 51%
    10:00 +27°C° 0 mm 2 mps 692 mmHg 45%
    11:00 +29°C° 0 mm 2 mps 693 mmHg 39%
    12:00 +29°C° 0 mm 3 mps 692 mmHg 39%
    13:00 +30°C° 0 mm 4 mps 692 mmHg 39%
    14:00 +30°C° 0 mm 5 mps 692 mmHg 40%
    15:00 +29°C° 0 mm 6 mps 692 mmHg 43%
    16:00 +28°C° 0 mm 6 mps 692 mmHg 45%
    17:00 +27°C° 0 mm 7 mps 691 mmHg 48%
    18:00 +25°C° 0 mm 5 mps 691 mmHg 59%
    19:00 +22°C° 0 mm 4 mps 691 mmHg 70%
    20:00 +20°C° 0 mm 2 mps 691 mmHg 80%
    21:00 +19°C° 0 mm 2 mps 691 mmHg 81%
    22:00 +19°C° 0 mm 2 mps 691 mmHg 81%
    23:00 +18°C° 0 mm 2 mps 691 mmHg 82%

    21 July, Sunday

    Time Temperature Precipitation Wind Pressure Humidity
    00:00 +19°C° 0 mm 1 mps 691 mmHg 84%
    01:00 +18°C° 0 mm 1 mps 690 mmHg 85%
    02:00 +18°C° 0 mm 1 mps 690 mmHg 87%
    03:00 +18°C° 0 mm 1 mps 690 mmHg 87%
    04:00 +18°C° 0 mm 1 mps 690 mmHg 87%
    05:00 +16°C° 0 mm 1 mps 690 mmHg 87%
    06:00 +20°C° 0 mm 1 mps 690 mmHg 76%
    07:00 +22°C° 0 mm 1 mps 691 mmHg 66%
    08:00 +24°C° 0 mm 1 mps 692 mmHg 55%
    09:00 +26°C° 0 mm 1 mps 692 mmHg 49%
    10:00 +28°C° 0 mm 2 mps 692 mmHg 43%
    11:00 +30°C° 0 mm 2 mps 692 mmHg 38%
    12:00 +30°C° 0 mm 3 mps 692 mmHg 38%
    13:00 +32°C° 0 mm 4 mps 691 mmHg 38%
    14:00 +32°C° 0 mm 5 mps 691 mmHg 39%
    15:00 +30°C° 0 mm 5 mps 691 mmHg 43%
    16:00 +29°C° 0 mm 6 mps 690 mmHg 46%
    17:00 +28°C° 0 mm 6 mps 690 mmHg 50%
    18:00 +26°C° 0 mm 5 mps 690 mmHg 60%
    19:00 +23°C° 0 mm 4 mps 690 mmHg 70%
    20:00 +21°C° 0 mm 3 mps 690 mmHg 79%
    21:00 +20°C° 0 mm 3 mps 690 mmHg 80%
    22:00 +20°C° 0 mm 2 mps 690 mmHg 81%
    23:00 +20°C° 0 mm 2 mps 690 mmHg 82%

    22 July, Monday

    Time Temperature Precipitation Wind Pressure Humidity
    00:00 +19°C° 0 mm 2 mps 689 mmHg 83%
    01:00 +20°C° 0 mm 1 mps 689 mmHg 85%
    02:00 +19°C° 0 mm 1 mps 689 mmHg 86%
    03:00 +19°C° 0 mm 1 mps 689 mmHg 87%
    04:00 +19°C° 0 mm 1 mps 689 mmHg 87%
    05:00 +19°C° 0 mm 1 mps 689 mmHg 88%
    06:00 +21°C° 0 mm 1 mps 689 mmHg 77%
    07:00 +23°C° 0 mm 1 mps 690 mmHg 65%
    08:00 +26°C° 0 mm 1 mps 690 mmHg 54%
    09:00 +28°C° 0 mm 2 mps 691 mmHg 47%
    10:00 +30°C° 0 mm 2 mps 691 mmHg 41%
    11:00 +33°C° 0 mm 3 mps 691 mmHg 34%
    12:00 +33°C° 0 mm 4 mps 691 mmHg 36%
    13:00 +33°C° 0 mm 4 mps 690 mmHg 38%
    14:00 +34°C° 0 mm 5 mps 690 mmHg 40%
    15:00 +32°C° 0 mm 6 mps 689 mmHg 43%
    16:00 +30°C° 0 mm 6 mps 689 mmHg 47%
    17:00 +29°C° 0 mm 7 mps 689 mmHg 50%
    18:00 +27°C° 0 mm 5 mps 689 mmHg 60%
    19:00 +25°C° 0 mm 4 mps 689 mmHg 70%
    20:00 +21°C° 0 mm 3 mps 689 mmHg 80%
    21:00 +21°C° 0 mm 2 mps 689 mmHg 81%
    22:00 +20°C° 0 mm 2 mps 689 mmHg 83%
    23:00 +20°C° 0 mm 2 mps 689 mmHg 84%
    Show more